Datum;Richtung;Anzahl Messungen;Anzahl Fahrzeuge;Durchschnittsgeschwindigkeit;Höchstgeschwindigkeit
22/10/2020 12:30;1;13;13;22.23;27.00
22/10/2020 13:00;1;22;22;23.77;35.00
22/10/2020 13:30;1;16;16;22.62;27.00
22/10/2020 14:00;1;20;20;23.95;35.00
22/10/2020 14:30;1;20;20;25.90;38.00
22/10/2020 15:00;1;27;27;24.19;37.00
22/10/2020 15:30;1;26;26;23.73;29.00
22/10/2020 16:00;1;36;36;24.50;45.00
22/10/2020 16:30;1;24;24;23.54;30.00
22/10/2020 17:00;1;28;28;23.75;40.00
22/10/2020 17:30;1;36;36;23.75;38.00
22/10/2020 18:00;1;29;29;24.86;54.00
22/10/2020 18:30;1;31;31;24.13;37.00
22/10/2020 19:00;1;16;16;24.50;31.00
22/10/2020 19:30;1;16;16;24.88;39.00
22/10/2020 20:00;1;8;8;24.75;33.00
22/10/2020 20:30;1;14;14;25.14;33.00
22/10/2020 21:00;1;9;9;25.33;38.00
22/10/2020 21:30;1;17;17;24.71;39.00
22/10/2020 22:00;1;9;9;22.56;25.00
22/10/2020 22:30;1;6;6;24.67;33.00
22/10/2020 23:00;1;4;4;24.25;28.00
22/10/2020 23:30;1;2;2;21.00;22.00
23/10/2020 00:00;1;3;3;24.67;28.00
23/10/2020 00:30;1;1;1;20.00;20.00
23/10/2020 01:00;1;3;3;23.33;27.00
23/10/2020 01:30;1;1;1;32.00;32.00
23/10/2020 02:00;1;1;1;23.00;23.00
23/10/2020 03:30;1;2;2;36.00;41.00
23/10/2020 04:00;1;1;1;25.00;25.00
23/10/2020 05:00;1;2;2;24.00;25.00
23/10/2020 05:30;1;4;4;22.75;28.00
23/10/2020 06:00;1;2;2;21.00;22.00
23/10/2020 06:30;1;8;8;22.50;27.00
23/10/2020 07:00;1;11;11;23.00;27.00
23/10/2020 07:30;1;37;37;23.03;29.00
23/10/2020 08:00;1;23;23;23.04;28.00
23/10/2020 08:30;1;25;25;22.40;27.00
23/10/2020 09:00;1;27;27;23.19;36.00
23/10/2020 09:30;1;18;18;23.67;30.00
23/10/2020 10:00;1;18;18;23.78;35.00
23/10/2020 10:30;1;12;12;21.92;25.00
23/10/2020 11:00;1;21;21;22.67;29.00
23/10/2020 11:30;1;29;29;23.69;32.00
23/10/2020 12:00;1;30;30;24.03;37.00
23/10/2020 12:30;1;24;24;23.88;31.00
23/10/2020 13:00;1;34;34;24.65;41.00
23/10/2020 13:30;1;29;29;24.24;32.00
23/10/2020 14:00;1;20;20;23.25;33.00
23/10/2020 14:30;1;18;18;23.78;29.00
23/10/2020 15:00;1;24;24;22.83;33.00
23/10/2020 15:30;1;27;27;22.56;28.00
23/10/2020 16:00;1;19;19;23.47;28.00
23/10/2020 16:30;1;36;36;25.39;40.00
23/10/2020 17:00;1;29;29;24.38;35.00
23/10/2020 17:30;1;30;30;24.77;32.00
23/10/2020 18:00;1;18;18;25.06;35.00
23/10/2020 18:30;1;10;10;22.80;29.00
23/10/2020 19:00;1;9;9;25.89;31.00
23/10/2020 19:30;1;26;26;24.42;33.00
23/10/2020 20:00;1;16;16;24.69;31.00
23/10/2020 20:30;1;16;16;29.25;38.00
23/10/2020 21:00;1;12;12;27.67;46.00
23/10/2020 21:30;1;14;14;24.50;29.00
23/10/2020 22:00;1;5;5;24.60;28.00
23/10/2020 22:30;1;5;5;27.00;34.00
23/10/2020 23:00;1;4;4;27.50;29.00
23/10/2020 23:30;1;6;6;25.33;47.00
24/10/2020 00:00;1;3;3;25.67;30.00
24/10/2020 00:30;1;2;2;23.00;23.00
24/10/2020 01:00;1;1;1;21.00;21.00
24/10/2020 01:30;1;3;3;29.67;47.00
24/10/2020 02:00;1;3;3;28.67;44.00
24/10/2020 03:00;1;1;1;21.00;21.00
24/10/2020 03:30;1;1;1;24.00;24.00
24/10/2020 04:30;1;1;1;27.00;27.00
24/10/2020 05:30;1;3;3;21.67;23.00
24/10/2020 06:00;1;1;1;21.00;21.00
24/10/2020 06:30;1;7;7;25.71;31.00
24/10/2020 07:00;1;8;8;26.62;36.00
24/10/2020 07:30;1;6;6;25.17;33.00
24/10/2020 08:00;1;3;3;24.00;29.00
24/10/2020 08:30;1;18;18;25.44;43.00
24/10/2020 09:00;1;18;18;23.28;27.00
24/10/2020 09:30;1;16;16;25.38;37.00
24/10/2020 10:00;1;12;12;24.17;35.00
24/10/2020 10:30;1;11;11;23.27;32.00
24/10/2020 11:00;1;20;20;23.75;33.00
24/10/2020 11:30;1;20;20;23.45;33.00
24/10/2020 12:00;1;27;27;24.63;38.00
24/10/2020 12:30;1;27;27;24.33;35.00
24/10/2020 13:00;1;21;21;26.05;44.00
24/10/2020 13:30;1;26;26;23.15;30.00
24/10/2020 14:00;1;25;25;24.48;37.00
24/10/2020 14:30;1;19;19;23.53;31.00
24/10/2020 15:00;1;20;20;24.30;37.00
24/10/2020 15:30;1;24;24;26.33;39.00
24/10/2020 16:00;1;24;24;24.62;38.00
24/10/2020 16:30;1;19;19;24.00;34.00
24/10/2020 17:00;1;15;15;24.07;29.00
24/10/2020 17:30;1;21;21;24.00;33.00
24/10/2020 18:00;1;24;24;24.17;34.00
24/10/2020 18:30;1;15;15;23.53;35.00
24/10/2020 19:00;1;30;30;26.27;41.00
24/10/2020 19:30;1;33;33;27.03;40.00
24/10/2020 20:00;1;25;25;27.00;37.00
24/10/2020 20:30;1;35;35;26.80;37.00
24/10/2020 21:00;1;9;9;24.56;34.00
24/10/2020 21:30;1;8;8;30.50;41.00
24/10/2020 22:00;1;9;9;23.89;36.00
24/10/2020 22:30;1;6;6;27.83;35.00
24/10/2020 23:00;1;4;4;25.25;34.00
24/10/2020 23:30;1;22;22;26.00;36.00
25/10/2020 00:00;1;9;9;26.78;31.00
25/10/2020 00:30;1;8;8;23.75;31.00
25/10/2020 01:00;1;3;3;25.00;28.00
25/10/2020 01:30;1;5;5;22.40;26.00
25/10/2020 02:30;1;7;7;38.71;59.00
25/10/2020 02:00;1;3;3;30.00;31.00
25/10/2020 02:30;1;4;4;26.75;30.00
25/10/2020 04:00;1;2;2;27.00;32.00
25/10/2020 04:30;1;1;1;42.00;42.00
25/10/2020 05:00;1;1;1;30.00;30.00
25/10/2020 05:30;1;1;1;22.00;22.00
25/10/2020 06:00;1;2;2;22.50;24.00
25/10/2020 06:30;1;3;3;36.00;42.00
25/10/2020 07:00;1;8;8;28.88;45.00
25/10/2020 07:30;1;3;3;26.00;30.00
25/10/2020 08:00;1;9;9;27.22;35.00
25/10/2020 08:30;1;12;12;26.67;37.00
25/10/2020 09:00;1;13;13;23.85;34.00
25/10/2020 09:30;1;11;11;26.64;43.00
25/10/2020 10:00;1;8;8;23.25;29.00
25/10/2020 10:30;1;9;9;24.11;32.00
25/10/2020 11:00;1;14;14;23.14;31.00
25/10/2020 11:30;1;14;14;23.71;32.00
25/10/2020 12:00;1;8;8;27.62;40.00
25/10/2020 12:30;1;11;11;23.91;31.00
25/10/2020 13:00;1;21;21;26.24;43.00
25/10/2020 13:30;1;15;15;25.40;39.00
25/10/2020 14:00;1;14;14;25.64;41.00
25/10/2020 14:30;1;17;17;23.59;39.00
25/10/2020 15:00;1;16;16;24.50;31.00
25/10/2020 15:30;1;12;12;26.67;36.00
25/10/2020 16:00;1;23;23;24.65;40.00
25/10/2020 16:30;1;14;14;27.07;40.00
25/10/2020 17:00;1;27;27;24.59;37.00
25/10/2020 17:30;1;33;33;24.91;37.00
25/10/2020 18:00;1;23;23;25.04;39.00
25/10/2020 18:30;1;22;22;24.18;29.00
25/10/2020 19:00;1;21;21;23.90;33.00
25/10/2020 19:30;1;16;16;27.69;47.00
25/10/2020 20:00;1;14;14;28.50;44.00
25/10/2020 20:30;1;9;9;26.78;38.00
25/10/2020 21:00;1;16;16;26.06;40.00
25/10/2020 21:30;1;7;7;23.86;29.00
25/10/2020 22:00;1;2;2;29.50;33.00
25/10/2020 22:30;1;4;4;26.50;33.00
26/10/2020 00:00;1;6;6;24.00;30.00
26/10/2020 00:30;1;1;1;22.00;22.00
26/10/2020 01:00;1;8;8;28.62;43.00
26/10/2020 01:30;1;2;2;34.00;46.00
26/10/2020 02:30;1;1;1;24.00;24.00
26/10/2020 03:00;1;1;1;24.00;24.00
26/10/2020 05:00;1;2;2;29.50;37.00
26/10/2020 05:30;1;1;1;34.00;34.00
26/10/2020 06:30;1;6;6;30.00;38.00
26/10/2020 07:00;1;8;8;25.25;35.00
26/10/2020 07:30;1;13;13;25.54;36.00
26/10/2020 08:00;1;16;16;28.69;58.00
26/10/2020 08:30;1;12;12;25.00;39.00
26/10/2020 09:00;1;17;17;23.00;27.00
26/10/2020 09:30;1;22;22;22.68;28.00
26/10/2020 10:00;1;16;16;24.62;34.00
26/10/2020 10:30;1;18;18;23.50;30.00
26/10/2020 11:00;1;24;24;23.00;38.00
26/10/2020 11:30;1;23;23;22.96;36.00
26/10/2020 12:00;1;27;27;25.15;35.00
26/10/2020 12:30;1;15;15;24.87;38.00
26/10/2020 13:00;1;33;33;25.00;35.00
26/10/2020 13:30;1;15;15;24.80;36.00
26/10/2020 14:00;1;20;20;24.00;32.00
26/10/2020 14:30;1;15;15;25.07;36.00
26/10/2020 15:00;1;23;23;25.09;42.00
26/10/2020 15:30;1;24;24;23.21;30.00
26/10/2020 16:00;1;22;22;24.32;34.00
26/10/2020 16:30;1;22;22;22.55;35.00
26/10/2020 17:00;1;22;22;24.73;34.00
26/10/2020 17:30;1;23;23;25.09;34.00
26/10/2020 18:00;1;26;26;22.46;28.00
26/10/2020 18:30;1;23;23;23.57;32.00
26/10/2020 19:00;1;32;32;26.28;45.00
26/10/2020 19:30;1;24;24;25.12;36.00
26/10/2020 20:00;1;22;22;26.23;37.00
26/10/2020 20:30;1;12;12;23.08;31.00
26/10/2020 21:00;1;20;20;26.05;37.00
26/10/2020 21:30;1;15;15;26.60;36.00
26/10/2020 22:00;1;23;23;26.83;37.00
26/10/2020 22:30;1;15;15;27.13;38.00
26/10/2020 23:00;1;13;13;27.54;39.00
26/10/2020 23:30;1;7;7;30.14;40.00
27/10/2020 00:00;1;5;5;22.80;29.00
27/10/2020 00:30;1;2;2;28.00;35.00
27/10/2020 01:00;1;7;7;28.57;36.00
27/10/2020 01:30;1;2;2;37.00;39.00
27/10/2020 02:30;1;1;1;33.00;33.00
27/10/2020 04:00;1;2;2;38.50;42.00
27/10/2020 04:30;1;2;2;31.50;37.00
27/10/2020 05:30;1;5;5;30.40;45.00
27/10/2020 06:30;1;14;14;28.57;42.00
27/10/2020 07:00;1;9;9;27.22;37.00
27/10/2020 07:30;1;17;17;24.94;31.00
27/10/2020 08:00;1;25;25;24.48;32.00
27/10/2020 08:30;1;25;25;24.52;33.00
27/10/2020 09:00;1;40;40;24.12;40.00
27/10/2020 09:30;1;32;32;25.38;39.00
27/10/2020 10:00;1;21;21;24.48;33.00
27/10/2020 10:30;1;17;17;24.65;31.00
27/10/2020 11:00;1;18;18;23.11;29.00
27/10/2020 11:30;1;20;20;24.15;37.00
27/10/2020 12:00;1;15;15;25.07;34.00
27/10/2020 12:30;1;22;22;23.27;31.00
27/10/2020 13:00;1;28;28;25.25;43.00
27/10/2020 13:30;1;16;16;24.00;36.00
27/10/2020 14:00;1;17;17;24.12;34.00
27/10/2020 14:30;1;20;20;23.75;36.00
27/10/2020 15:00;1;22;22;23.18;30.00
27/10/2020 15:30;1;23;23;24.87;37.00
27/10/2020 16:00;1;15;15;25.87;46.00
27/10/2020 16:30;1;20;20;23.65;34.00
27/10/2020 17:00;1;20;20;22.50;31.00
27/10/2020 17:30;1;24;24;23.50;32.00
27/10/2020 18:00;1;20;20;24.25;39.00
27/10/2020 18:30;1;26;26;23.96;35.00
27/10/2020 19:00;1;38;38;23.82;39.00
27/10/2020 19:30;1;24;24;27.00;48.00
27/10/2020 20:00;1;16;16;22.31;30.00
27/10/2020 20:30;1;13;13;25.77;43.00
27/10/2020 21:00;1;18;18;23.78;35.00
27/10/2020 21:30;1;8;8;23.62;27.00
27/10/2020 22:00;1;6;6;23.67;26.00
27/10/2020 22:30;1;9;9;23.78;29.00
27/10/2020 23:00;1;12;12;26.83;32.00
27/10/2020 23:30;1;8;8;25.88;35.00
28/10/2020 00:00;1;3;3;28.67;32.00
28/10/2020 00:30;1;2;2;28.00;29.00
28/10/2020 01:30;1;3;3;27.00;30.00
28/10/2020 03:30;1;2;2;34.50;40.00
28/10/2020 04:30;1;1;1;34.00;34.00
28/10/2020 05:00;1;2;2;32.00;33.00
28/10/2020 05:30;1;3;3;31.33;35.00
28/10/2020 06:00;1;3;3;30.67;35.00
28/10/2020 06:30;1;6;6;27.67;33.00
28/10/2020 07:00;1;2;2;24.50;25.00
28/10/2020 07:30;1;14;14;27.71;41.00
28/10/2020 08:00;1;17;17;23.18;28.00
28/10/2020 08:30;1;25;25;24.32;32.00
28/10/2020 09:00;1;21;21;23.52;29.00
28/10/2020 09:30;1;18;18;23.56;31.00
28/10/2020 10:00;1;19;19;23.11;32.00
28/10/2020 10:30;1;20;20;24.75;39.00
28/10/2020 11:00;1;17;17;23.35;32.00
28/10/2020 11:30;1;13;13;23.31;30.00
28/10/2020 12:00;1;17;17;25.59;41.00
28/10/2020 12:30;1;19;19;23.58;30.00
28/10/2020 13:00;1;30;30;25.20;39.00
28/10/2020 13:30;1;20;20;23.45;34.00
28/10/2020 14:00;1;26;26;23.15;34.00
28/10/2020 14:30;1;23;23;24.65;38.00
28/10/2020 15:00;1;36;36;24.78;35.00
28/10/2020 15:30;1;24;24;24.33;37.00
28/10/2020 16:00;1;18;18;24.78;32.00
28/10/2020 16:30;1;26;26;23.12;32.00
28/10/2020 17:00;1;18;18;24.22;31.00
28/10/2020 17:30;1;18;18;22.72;34.00
28/10/2020 18:00;1;17;17;22.88;27.00
28/10/2020 18:30;1;34;34;23.62;36.00
28/10/2020 19:00;1;29;29;23.90;39.00
28/10/2020 19:30;1;26;26;23.19;27.00
28/10/2020 20:00;1;23;23;26.22;43.00
28/10/2020 20:30;1;29;29;26.79;40.00
28/10/2020 21:00;1;35;35;28.40;46.00
28/10/2020 21:30;1;27;27;28.81;44.00
28/10/2020 22:00;1;27;27;27.00;39.00
28/10/2020 22:30;1;12;12;26.33;35.00
28/10/2020 23:00;1;10;10;27.70;35.00
28/10/2020 23:30;1;10;10;25.50;34.00
29/10/2020 00:00;1;11;11;26.00;32.00
29/10/2020 00:30;1;7;7;25.57;33.00
29/10/2020 01:00;1;2;2;23.00;24.00
29/10/2020 01:30;1;2;2;22.00;23.00
29/10/2020 02:00;1;4;4;33.75;47.00
29/10/2020 02:30;1;1;1;38.00;38.00
29/10/2020 03:30;1;2;2;33.50;37.00
29/10/2020 04:00;1;1;1;26.00;26.00
29/10/2020 04:30;1;1;1;28.00;28.00
29/10/2020 06:00;1;4;4;27.25;30.00
29/10/2020 06:30;1;7;7;25.43;29.00
29/10/2020 07:00;1;3;3;25.00;29.00
29/10/2020 07:30;1;4;4;22.00;27.00
29/10/2020 08:00;1;12;12;23.83;30.00
29/10/2020 08:30;1;20;20;25.05;40.00
29/10/2020 09:00;1;17;17;23.06;31.00
29/10/2020 09:30;1;23;23;25.04;35.00
29/10/2020 10:00;1;26;26;23.92;33.00
29/10/2020 10:30;1;17;17;22.29;25.00
29/10/2020 11:00;1;15;15;23.73;32.00
29/10/2020 11:30;1;16;16;21.62;26.00
29/10/2020 12:00;1;13;13;25.38;35.00
29/10/2020 12:30;1;31;31;24.74;35.00
29/10/2020 13:00;1;22;22;25.55;46.00
29/10/2020 13:30;1;22;22;25.09;42.00
29/10/2020 14:00;1;23;23;23.74;34.00
29/10/2020 14:30;1;25;25;24.24;38.00
29/10/2020 15:00;1;28;28;23.89;34.00
29/10/2020 15:30;1;33;33;24.88;39.00
29/10/2020 16:00;1;29;29;25.34;36.00
29/10/2020 16:30;1;23;23;23.09;32.00
29/10/2020 17:00;1;18;18;24.72;31.00
29/10/2020 17:30;1;21;21;23.24;33.00
29/10/2020 18:00;1;21;21;22.38;27.00
29/10/2020 18:30;1;17;17;23.76;31.00
29/10/2020 19:00;1;40;40;24.00;35.00
29/10/2020 19:30;1;32;32;24.31;35.00
29/10/2020 20:00;1;32;32;24.00;37.00
29/10/2020 20:30;1;21;21;25.19;39.00
29/10/2020 21:00;1;22;22;24.95;36.00
29/10/2020 21:30;1;8;8;25.00;33.00
29/10/2020 22:00;1;7;7;31.57;48.00
29/10/2020 22:30;1;4;4;22.00;24.00
29/10/2020 23:00;1;7;7;25.86;30.00
29/10/2020 23:30;1;13;13;24.23;34.00
30/10/2020 00:00;1;4;4;28.75;35.00
30/10/2020 00:30;1;1;1;22.00;22.00
30/10/2020 01:00;1;3;3;26.33;30.00
30/10/2020 02:00;1;6;6;25.67;33.00
30/10/2020 02:30;1;1;1;34.00;34.00
30/10/2020 03:00;1;1;1;31.00;31.00
30/10/2020 05:00;1;1;1;29.00;29.00
30/10/2020 06:00;1;1;1;33.00;33.00
30/10/2020 06:30;1;4;4;22.75;28.00
30/10/2020 07:00;1;3;3;22.33;25.00
30/10/2020 07:30;1;9;9;24.78;32.00
30/10/2020 08:00;1;12;12;23.33;30.00
30/10/2020 08:30;1;22;22;23.95;34.00
30/10/2020 09:00;1;19;19;25.37;39.00
30/10/2020 09:30;1;25;25;23.40;32.00
30/10/2020 10:00;1;19;19;22.84;28.00
30/10/2020 10:30;1;12;12;22.33;26.00
30/10/2020 11:00;1;31;31;24.00;33.00
30/10/2020 11:30;1;23;23;23.57;37.00
30/10/2020 12:00;1;18;18;23.83;32.00
30/10/2020 12:30;1;33;33;24.94;40.00
30/10/2020 13:00;1;30;30;25.27;36.00
30/10/2020 13:30;1;30;30;24.27;38.00
30/10/2020 14:00;1;36;36;23.81;35.00
30/10/2020 14:30;1;28;28;23.57;30.00
30/10/2020 15:00;1;29;29;25.48;42.00
30/10/2020 15:30;1;27;27;23.93;36.00
30/10/2020 16:00;1;33;33;24.03;40.00
30/10/2020 16:30;1;31;31;25.19;35.00
30/10/2020 17:00;1;30;30;24.90;42.00
30/10/2020 17:30;1;33;33;25.03;42.00
30/10/2020 18:00;1;33;33;23.15;36.00
30/10/2020 18:30;1;26;26;24.69;38.00
30/10/2020 19:00;1;26;26;23.65;32.00
30/10/2020 19:30;1;39;39;26.03;45.00
30/10/2020 20:00;1;26;26;25.58;38.00
30/10/2020 20:30;1;15;15;25.93;33.00
30/10/2020 21:00;1;16;16;26.31;34.00
30/10/2020 21:30;1;11;11;27.27;39.00
30/10/2020 22:00;1;12;12;24.33;33.00
30/10/2020 22:30;1;20;20;29.55;44.00
30/10/2020 23:00;1;16;16;25.38;36.00
30/10/2020 23:30;1;7;7;23.29;29.00
31/10/2020 00:00;1;10;10;22.90;33.00
31/10/2020 00:30;1;7;7;26.57;35.00
31/10/2020 01:00;1;3;3;37.00;48.00
31/10/2020 01:30;1;1;1;91.00;91.00
31/10/2020 02:00;1;3;3;23.00;28.00
31/10/2020 02:30;1;1;1;20.00;20.00
31/10/2020 03:00;1;1;1;23.00;23.00
31/10/2020 04:00;1;1;1;28.00;28.00
31/10/2020 05:00;1;1;1;23.00;23.00
31/10/2020 05:30;1;1;1;34.00;34.00
31/10/2020 06:00;1;2;2;29.50;39.00
31/10/2020 06:30;1;2;2;22.50;24.00
31/10/2020 07:00;1;5;5;28.40;37.00
31/10/2020 07:30;1;12;12;27.00;41.00
31/10/2020 08:00;1;11;11;27.91;35.00
31/10/2020 08:30;1;7;7;24.00;30.00
31/10/2020 09:00;1;7;7;23.29;31.00
31/10/2020 09:30;1;9;9;24.67;33.00
31/10/2020 10:00;1;23;23;24.57;35.00
31/10/2020 10:30;1;22;22;25.14;35.00
31/10/2020 11:00;1;22;22;23.23;32.00
31/10/2020 11:30;1;18;18;25.00;39.00
31/10/2020 12:00;1;16;16;24.44;37.00
31/10/2020 12:30;1;11;11;25.00;36.00
31/10/2020 13:00;1;16;16;24.44;36.00
31/10/2020 13:30;1;31;31;23.58;30.00
31/10/2020 14:00;1;26;26;24.12;35.00
31/10/2020 14:30;1;24;24;23.29;37.00
31/10/2020 15:00;1;15;15;24.07;38.00
31/10/2020 15:30;1;27;27;24.89;39.00
31/10/2020 16:00;1;32;32;24.12;34.00
31/10/2020 16:30;1;24;24;23.71;38.00
31/10/2020 17:00;1;16;16;24.19;30.00
31/10/2020 17:30;1;12;12;25.50;32.00
31/10/2020 18:00;1;25;25;23.16;31.00
31/10/2020 18:30;1;17;17;23.88;30.00
31/10/2020 19:00;1;28;28;24.64;35.00
31/10/2020 19:30;1;21;21;24.29;31.00
31/10/2020 20:00;1;12;12;27.92;43.00
31/10/2020 20:30;1;18;18;23.61;35.00
31/10/2020 21:00;1;10;10;27.60;39.00
31/10/2020 21:30;1;18;18;26.39;37.00
31/10/2020 22:00;1;22;22;26.91;41.00
31/10/2020 22:30;1;14;14;26.86;31.00
31/10/2020 23:00;1;10;10;28.40;34.00
31/10/2020 23:30;1;8;8;29.38;43.00
01/11/2020 00:00;1;8;8;32.12;37.00
01/11/2020 00:30;1;9;9;30.00;40.00
01/11/2020 01:00;1;7;7;29.43;41.00
01/11/2020 01:30;1;10;10;26.70;38.00
01/11/2020 02:00;1;7;7;35.71;64.00
01/11/2020 02:30;1;5;5;29.20;33.00
01/11/2020 03:30;1;3;3;30.00;37.00
01/11/2020 04:00;1;3;3;22.67;27.00
01/11/2020 04:30;1;2;2;31.00;39.00
01/11/2020 05:00;1;3;3;24.67;27.00
01/11/2020 05:30;1;3;3;30.00;38.00
01/11/2020 06:00;1;1;1;22.00;22.00
01/11/2020 06:30;1;1;1;20.00;20.00
01/11/2020 07:30;1;1;1;22.00;22.00
01/11/2020 08:00;1;13;13;26.85;47.00
01/11/2020 08:30;1;7;7;30.57;43.00
01/11/2020 09:00;1;4;4;27.75;33.00
01/11/2020 09:30;1;4;4;22.75;25.00
01/11/2020 10:00;1;9;9;25.56;34.00
01/11/2020 10:30;1;11;11;27.45;36.00
01/11/2020 11:00;1;9;9;26.00;32.00
01/11/2020 11:30;1;8;8;24.00;29.00
01/11/2020 12:00;1;6;6;21.50;23.00
01/11/2020 12:30;1;23;23;25.43;33.00
01/11/2020 13:00;1;14;14;24.71;32.00
01/11/2020 13:30;1;12;12;24.50;29.00
01/11/2020 14:00;1;16;16;25.62;40.00
01/11/2020 14:30;1;15;15;24.80;36.00
01/11/2020 15:00;1;17;17;26.35;40.00
01/11/2020 15:30;1;7;7;22.71;26.00
01/11/2020 16:00;1;13;13;25.31;34.00
01/11/2020 16:30;1;10;10;27.00;47.00
01/11/2020 17:00;1;17;17;25.29;33.00
01/11/2020 17:30;1;16;16;25.75;43.00
01/11/2020 18:00;1;25;25;24.44;35.00
01/11/2020 18:30;1;17;17;24.53;30.00
01/11/2020 19:00;1;17;17;24.82;43.00
01/11/2020 19:30;1;14;14;24.21;35.00
01/11/2020 20:00;1;11;11;22.73;27.00
01/11/2020 20:30;1;12;12;25.25;31.00
01/11/2020 21:00;1;15;15;26.20;38.00
01/11/2020 21:30;1;7;7;24.43;33.00
01/11/2020 22:00;1;7;7;24.29;32.00
01/11/2020 22:30;1;6;6;25.33;30.00
01/11/2020 23:00;1;7;7;23.14;26.00
01/11/2020 23:30;1;2;2;24.00;26.00
02/11/2020 00:00;1;2;2;24.50;29.00
02/11/2020 00:30;1;3;3;25.67;28.00
02/11/2020 01:00;1;5;5;29.40;45.00
02/11/2020 01:30;1;2;2;23.00;26.00
02/11/2020 03:30;1;1;1;23.00;23.00
02/11/2020 04:30;1;1;1;26.00;26.00
02/11/2020 06:00;1;2;2;26.50;28.00
02/11/2020 06:30;1;6;6;24.67;30.00
02/11/2020 07:00;1;7;7;25.14;39.00
02/11/2020 07:30;1;12;12;24.33;37.00
02/11/2020 08:00;1;27;27;23.33;34.00
02/11/2020 08:30;1;37;37;23.24;31.00
02/11/2020 09:00;1;40;40;24.25;36.00
02/11/2020 09:30;1;28;28;24.21;55.00
02/11/2020 10:00;1;15;15;24.60;30.00
02/11/2020 10:30;1;21;21;25.10;54.00
02/11/2020 11:00;1;21;21;24.43;35.00
02/11/2020 11:30;1;18;18;26.39;41.00
02/11/2020 12:00;1;51;51;22.75;40.00
02/11/2020 12:30;1;53;53;22.17;34.00
02/11/2020 13:00;1;30;30;20.10;31.00
02/11/2020 13:30;1;31;31;21.19;34.00
02/11/2020 14:00;1;43;43;22.02;35.00
02/11/2020 14:30;1;24;24;22.00;39.00
02/11/2020 15:00;1;42;42;21.95;33.00
02/11/2020 15:30;1;41;41;21.24;31.00
02/11/2020 16:00;1;35;35;21.03;39.00
02/11/2020 16:30;1;39;39;20.38;30.00
02/11/2020 17:00;1;46;46;20.28;32.00
02/11/2020 17:30;1;53;53;21.91;37.00
02/11/2020 18:00;1;36;36;21.22;31.00
02/11/2020 18:30;1;41;41;23.61;36.00
02/11/2020 19:00;1;25;25;24.28;36.00
02/11/2020 19:30;1;18;18;23.89;35.00
02/11/2020 20:00;1;15;15;24.73;39.00
02/11/2020 20:30;1;9;9;24.89;33.00
02/11/2020 21:00;1;8;8;25.25;34.00
02/11/2020 21:30;1;9;9;23.11;34.00
02/11/2020 22:00;1;10;10;24.70;36.00
02/11/2020 22:30;1;6;6;24.00;35.00
02/11/2020 23:00;1;6;6;26.67;35.00
02/11/2020 23:30;1;7;7;25.29;39.00
03/11/2020 00:00;1;1;1;21.00;21.00
03/11/2020 00:30;1;1;1;17.00;17.00
03/11/2020 01:00;1;3;3;27.33;36.00
03/11/2020 03:30;1;2;2;17.50;19.00
03/11/2020 04:30;1;1;1;23.00;23.00
03/11/2020 05:00;1;1;1;22.00;22.00
03/11/2020 05:30;1;7;7;22.29;35.00
03/11/2020 06:00;1;4;4;19.25;21.00
03/11/2020 06:30;1;16;16;21.06;29.00
03/11/2020 07:00;1;31;31;21.55;33.00
03/11/2020 07:30;1;77;77;20.97;46.00
03/11/2020 08:00;1;36;36;21.17;32.00
03/11/2020 08:30;1;41;41;20.90;32.00
03/11/2020 09:00;1;50;50;22.94;35.00
03/11/2020 09:30;1;32;32;21.50;35.00
03/11/2020 10:00;1;36;36;23.44;42.00
03/11/2020 10:30;1;22;22;22.05;38.00
03/11/2020 11:00;1;26;26;20.85;33.00
03/11/2020 11:30;1;33;33;22.48;36.00
03/11/2020 12:00;1;34;34;23.62;39.00
03/11/2020 12:30;1;24;24;21.58;33.00
03/11/2020 13:00;1;23;23;20.74;34.00
03/11/2020 13:30;1;39;39;20.26;30.00
03/11/2020 14:00;1;41;41;21.51;32.00
03/11/2020 14:30;1;37;37;22.14;39.00
03/11/2020 15:00;1;41;41;23.00;35.00
03/11/2020 15:30;1;24;24;22.12;36.00
03/11/2020 16:00;1;36;36;22.44;34.00
03/11/2020 16:30;1;30;30;20.73;33.00
03/11/2020 17:00;1;30;30;20.50;27.00
03/11/2020 17:30;1;31;31;21.68;32.00
03/11/2020 18:00;1;35;35;23.00;35.00
03/11/2020 18:30;1;23;23;22.13;37.00
03/11/2020 19:00;1;9;9;23.11;30.00
03/11/2020 19:30;1;10;10;23.90;30.00
03/11/2020 20:00;1;6;6;27.33;39.00
03/11/2020 20:30;1;9;9;24.00;33.00
03/11/2020 21:00;1;8;8;26.75;34.00
03/11/2020 21:30;1;4;4;28.75;45.00
03/11/2020 22:00;1;7;7;28.00;34.00
03/11/2020 22:30;1;6;6;23.67;34.00
03/11/2020 23:00;1;2;2;25.50;28.00
03/11/2020 23:30;1;6;6;24.83;35.00
04/11/2020 00:00;1;2;2;17.50;18.00
04/11/2020 00:30;1;1;1;27.00;27.00
04/11/2020 03:30;1;1;1;17.00;17.00
04/11/2020 05:00;1;4;4;26.25;36.00
04/11/2020 05:30;1;11;11;25.45;39.00
04/11/2020 06:00;1;6;6;25.50;37.00
04/11/2020 06:30;1;15;15;26.40;38.00
04/11/2020 07:00;1;40;40;21.62;30.00
04/11/2020 07:30;1;57;57;20.93;29.00
04/11/2020 08:00;1;33;33;23.09;34.00
04/11/2020 08:30;1;32;32;21.31;27.00
04/11/2020 09:00;1;19;19;21.58;30.00
04/11/2020 09:30;1;19;19;22.16;29.00
04/11/2020 10:00;1;23;23;20.96;30.00
04/11/2020 10:30;1;25;25;22.56;36.00
04/11/2020 11:00;1;30;30;21.07;33.00
04/11/2020 11:30;1;27;27;23.63;37.00
04/11/2020 12:00;1;32;32;21.03;30.00
04/11/2020 12:30;1;32;32;19.66;26.00
04/11/2020 13:00;1;33;33;21.52;34.00
04/11/2020 13:30;1;27;27;21.19;28.00
04/11/2020 14:00;1;34;34;21.74;38.00
04/11/2020 14:30;1;39;39;21.54;31.00
04/11/2020 15:00;1;30;30;21.77;40.00
04/11/2020 15:30;1;38;38;20.97;34.00
04/11/2020 16:00;1;28;28;20.57;30.00
04/11/2020 16:30;1;48;48;22.21;36.00
04/11/2020 17:00;1;46;46;21.98;38.00
04/11/2020 17:30;1;46;46;22.59;33.00
04/11/2020 18:00;1;39;39;24.15;37.00
04/11/2020 18:30;1;45;45;24.82;38.00
04/11/2020 19:00;1;39;39;27.90;43.00
04/11/2020 19:30;1;30;30;25.00;55.00
04/11/2020 20:00;1;23;23;24.78;43.00
04/11/2020 20:30;1;12;12;27.08;46.00
04/11/2020 21:00;1;15;15;24.73;34.00
04/11/2020 21:30;1;18;18;25.33;50.00
04/11/2020 22:00;1;11;11;25.64;43.00
04/11/2020 22:30;1;16;16;27.38;39.00
04/11/2020 23:00;1;9;9;27.44;36.00
04/11/2020 23:30;1;2;2;23.50;24.00
05/11/2020 00:00;1;4;4;23.75;31.00
05/11/2020 00:30;1;3;3;27.33;30.00
05/11/2020 01:30;1;5;5;30.40;39.00
05/11/2020 02:00;1;3;3;23.67;28.00
05/11/2020 03:00;1;2;2;23.00;25.00
05/11/2020 05:00;1;1;1;21.00;21.00
05/11/2020 05:30;1;10;10;23.90;29.00
05/11/2020 06:00;1;14;14;24.43;37.00
05/11/2020 06:30;1;14;14;23.79;32.00
05/11/2020 07:00;1;43;43;23.00;42.00
05/11/2020 07:30;1;77;77;22.03;33.00
05/11/2020 08:00;1;38;38;21.95;37.00
05/11/2020 08:30;1;24;24;22.17;30.00
05/11/2020 09:00;1;34;34;22.53;33.00
05/11/2020 09:30;1;32;32;20.00;30.00
05/11/2020 10:00;1;24;24;23.00;41.00
05/11/2020 10:30;1;20;20;20.80;32.00
05/11/2020 11:00;1;28;28;21.79;36.00
05/11/2020 11:30;1;49;49;22.67;34.00
05/11/2020 12:00;1;39;39;23.28;39.00
05/11/2020 12:30;1;46;46;23.72;40.00
05/11/2020 13:00;1;30;30;23.17;43.00
05/11/2020 13:30;1;34;34;21.47;36.00
05/11/2020 14:00;1;24;24;20.75;31.00
05/11/2020 14:30;1;29;29;20.14;32.00
05/11/2020 15:00;1;27;27;21.59;31.00
05/11/2020 15:30;1;39;39;21.56;33.00
05/11/2020 16:00;1;29;29;21.48;35.00
05/11/2020 16:30;1;35;35;20.51;32.00
05/11/2020 17:00;1;45;45;22.44;39.00
05/11/2020 17:30;1;47;47;21.02;29.00
05/11/2020 18:00;1;39;39;22.18;32.00
05/11/2020 18:30;1;27;27;21.96;34.00
05/11/2020 19:00;1;27;27;24.07;33.00
05/11/2020 19:30;1;20;20;23.55;38.00
05/11/2020 20:00;1;20;20;22.90;37.00
05/11/2020 20:30;1;12;12;22.50;38.00
05/11/2020 21:00;1;11;11;23.09;34.00
05/11/2020 21:30;1;13;13;25.31;38.00
05/11/2020 22:00;1;16;16;24.81;43.00
05/11/2020 22:30;1;4;4;20.00;24.00
05/11/2020 23:00;1;12;12;24.67;34.00
06/11/2020 00:00;1;2;2;36.00;52.00
06/11/2020 00:30;1;7;7;24.43;34.00
06/11/2020 01:30;1;1;1;16.00;16.00
06/11/2020 02:00;1;1;1;30.00;30.00
06/11/2020 04:00;1;1;1;19.00;19.00
06/11/2020 05:00;1;1;1;17.00;17.00
06/11/2020 05:30;1;6;6;20.00;26.00
06/11/2020 06:00;1;17;17;22.35;29.00
06/11/2020 06:30;1;18;18;25.00;40.00
06/11/2020 07:00;1;45;45;22.60;35.00
06/11/2020 07:30;1;69;69;21.41;33.00
06/11/2020 08:00;1;40;40;20.48;30.00
06/11/2020 08:30;1;34;34;19.74;28.00
06/11/2020 09:00;1;48;48;23.69;38.00
06/11/2020 09:30;1;43;43;20.44;29.00
06/11/2020 10:00;1;34;34;22.71;38.00
06/11/2020 10:30;1;24;24;20.38;33.00
06/11/2020 11:00;1;36;36;21.28;36.00
06/11/2020 11:30;1;36;36;21.17;36.00
06/11/2020 12:00;1;41;41;21.12;28.00
06/11/2020 12:30;1;26;26;22.00;32.00
06/11/2020 13:00;1;50;50;21.40;51.00